Probability
0 0 0 0 0 0 0 0 0 0 0 0 0 0 0 0 0 0 0 0 0 0 0 0 0 0 0 0 0 0 0 0 0 0 0 0 0 0 0 0 0 0 0
0 0 0 0 0 0 0 0 0 0 0 0 0 0 0 0 0 0 0 0 0 0 0 0 0 0 0 0 0 0 0 0 0 0 0 0 0 0 0 0 0 0 0
0 0 0 0 0 0 0 0 0 0 0 0 0 0 0 0 0 0 0 0 0 0 0 0 0 0 0 0 0 0 0 0 0 0 0 0 0 0 0 0 0 0 0
0 0 0 0 0 0 0 0 0 0 0 0 0 0 0 0 0 0 0 0 0 0 0 0 0 0 0 0 0 0 0 0 0 0 0 0 0 0 0 0 0 0 0
0 0 0 0 0 0 0 0 0 0 0 0 0 0 0 0 0 0 0 0 0 0 0 0 0 0 0 0 0 0 0 0 0 0 0 0 0 0 0 0 0 0 0
0 0 0 0 0 0 0 0 0 0 0 0 0 0 0 0 0 0 0 0 0 0 0 0 0 0 0 0 0 0 0 0 0 0 0 0 0 0 0 0 0 0 0
0 0 0 0 0 0 0 0 0 0 0 0 0 0 0 0 0 0 0 0 0 0 0 0 0 0 0 0 0 0 0 0 0 0 0 0 0 0 0 0 0 0 0
0 0 0 0 0 0 0 0 0 0 0 0 0 0 0 0 0 0 0 0 0 0 0 0 0 0 0 0 0 0 0 0 0 0 0 0 0 0 0 0 0 0 0
0 0 0 0 0 0 0 0 0 0 0 0 0 0 0 0 0 0 0 0 0 0 0 0 0 0 0 0 0 0 0 0 0 0 0 0 0 0 0 0 0 0 0
0 0 0 0 0 0 0 0 0 0 0 0 0 0 0 0 0 0 0 0 0 0 0 0 0 0 0 0 0 0 0 0 0 0 0 0 0 0 0 0 0 0 0
0 0 0 0 0 0 0 0 0 0 0 0 0 0 0 0 0 0 0 0 0 0 0 0 0 0 0 0 0 0 0 0 0 0 0 0 0 0 0 0 0 0 0
0 0 0 0 0 0 0 0 0 0 0 0 0 0 0 0 0 0 0 0 0 0 0 0 0 0 0 0 0 0 0 0 0 0 0 0 0 0 0 0 0 0 0
0 0 0 0 0 0 0 0 0 0 0 0 0 0 0 0 0 0 0 0 0 0 0 0 0 0 0 0 0 0 0 0 0 0 0 0 0 0 0 0 0 0 0
0 0 0 0 0 0 0 0 0 0 0 0 0 0 0 0 0 0 0 0 0 0 0 0 0 0 0 0 0 0 0 0 0 0 0 0 0 0 0 0 0 0 0
0 0 0 0 0 0 0 0 0 0 0 0 0 0 0 0 0 0 0 0 0 0 0 0 0 0 0 0 0 0 0 0 0 0 0 0 0 0 0 0 0 0 0
0 0 0 0 0 0 0 0 0 0 0 0 0 0 0 0 0 0 0 0 0 0 0 0 0 0 0 0 0 0 0 0 0 0 0 0 0 0 0 0 0 0 0
0 0 0 0 0 0 0 0 0 0 0 0 0 0 0 0 0 0 0 0 0 0 0 0 0 0 0 0 0 0 0 0 0 0 0 0 0 0 0 0 0 0 0
0 0 0 0 0 0 0 0 0 0 0 0 0 0 0 0 0 0 0 0 0 0 0 0 0 0 0 0 0 0 0 0 0 0 0 0 0 0 0 0 0 0 0
0 0 0 0 0 0 0 0 0 0 0 0 0 0 0 0 0 0 0 0 0 0 0 0 0 0 0 0 0 0 0 0 0 0 0 0 0 0 0 0 0 0 0
0 0 0 0 0 0 0 0 0 0 0 0 0 0 0 0 0 0 0 0 0 0 0 0 0 0 0 0 0 0 0 0 0 0 0 0 0 0 0 0 0 0 0
0 0 0 0 0 0 0 0 0 0 0 0 0 0 0 0 0 0 0 0 0 0 0 0 0 0 0 0 0 0 0 0 0 0 0 0 0 0 0 0 0 0 0
0 0 0 0 0 0 0 0 0 0 0 0 0 0 0 0 0 0 0 0 0 0 0 0 0 0 0 0 0 0 0 0 0 0 0 0 0 0 0 0 0 0 0
0 0 0 0 0 0 0 0 0 0 0 0 0 0 0 0 0 0 0 0 0 0 0 0 0 0 0 0 0 0 0 0 0 0 0 0 0 0 0 0 0 0 0
0 0 0 0 0 0 0 0 0 0 0 0 0 0 0 0 0 0 0 0 0 0 0 0 0 0 0 0 0 0 0 0 0 0 0 0 0 0 0 0 0 0 0
0 0 0 0 0 0 0 0 0 0 0 0 0 0 0 0 0 0 0 0 0 0 0 0 0 0 0 0 0 0 0 0 0 0 0 0 0 0 0 0 0 0 0
0 0 0 0 0 0 0 0 0 0 0 0 0 0 0 0 0 0 0 0 0 0 0 0 0 0 0 0 0 0 0 0 0 0 0 0 0 0 0 0 0 0 0
Wind_Speed
10 10 12 12 10 10 11 12 12 12 10 8 8 7 7 5 4 5 6 8 9 11 11 9 11 11 10 11 11 10 10 7 8 6 4 3 3 3 3 4 3 3 4
9 10 11 12 13 13 12 11 12 13 12 10 8 6 5 5 5 4 6 8 9 11 11 13 12 12 10 11 10 12 8 6 7 6 5 3 1 2 3 3 4 4 3
10 9 10 11 12 13 13 12 12 12 12 10 6 4 4 3 5 7 7 8 10 11 11 14 13 14 13 13 15 16 12 10 8 5 7 7 7 3 2 4 4 4 3
10 9 8 10 11 12 10 10 10 10 10 10 9 10 9 10 10 7 6 7 9 10 12 13 14 15 13 14 16 16 9 13 11 6 4 4 7 7 4 2 4 5 5
8 7 7 8 9 10 10 9 9 9 10 10 11 10 9 8 5 5 7 8 8 9 11 13 13 14 13 15 15 14 10 10 11 8 5 3 3 4 6 5 4 4 4
0 1 2 3 4 6 7 8 9 9 9 10 10 11 10 8 6 7 8 8 6 7 10 11 13 13 12 14 15 16 14 12 11 7 6 7 7 6 6 5 4 4 4
1 2 2 2 3 5 6 6 7 8 8 9 9 10 9 9 9 7 8 8 7 7 10 10 11 11 11 13 13 14 14 12 12 11 8 6 5 5 5 6 5 4 3
2 3 3 4 4 6 7 7 7 7 8 9 9 8 8 7 7 8 7 8 8 8 9 11 11 11 12 13 13 11 12 11 11 12 10 6 6 5 5 7 7 5 3
3 4 4 4 4 5 6 7 7 7 7 8 8 8 8 8 8 7 7 6 7 7 10 11 11 11 12 13 13 11 13 11 11 11 10 7 6 5 5 5 7 9 8
0 1 2 3 3 4 4 5 6 7 7 7 7 7 8 8 7 7 8 7 8 8 10 11 11 11 11 12 12 10 11 12 11 8 10 8 5 5 5 5 5 5 7
1 0 1 2 3 3 3 4 5 6 7 7 7 8 8 7 8 8 8 7 7 8 10 11 11 11 11 11 12 11 12 14 12 10 11 11 8 7 6 5 5 4 5
1 0 2 2 3 3 4 5 6 7 7 7 7 8 8 8 9 9 8 8 8 8 9 10 10 11 11 11 12 13 13 14 15 13 13 12 10 10 8 7 6 5 5
2 2 2 3 4 5 6 6 7 8 7 7 8 8 9 10 11 10 8 8 8 8 8 9 11 11 11 11 11 12 13 14 14 14 15 14 14 12 9 9 7 5 4
4 3 4 4 5 6 6 7 8 8 7 7 8 10 11 10 10 8 8 8 8 9 9 9 10 10 10 11 10 10 11 11 11 12 13 14 15 15 13 10 9 7 6
6 5 5 5 5 5 6 6 7 7 7 8 9 12 10 8 8 8 8 7 8 8 8 8 8 8 9 9 11 11 11 11 11 10 11 12 13 15 14 11 11 10 7
7 7 7 6 5 5 5 5 6 6 6 8 10 9 7 7 8 8 7 7 8 7 8 9 9 9 8 13 18 14 11 11 11 11 10 9 11 15 18 18 17 16 11
8 8 8 7 5 5 4 5 5 4 5 7 8 7 7 7 7 7 7 8 8 7 8 8 9 10 12 17 18 17 10 10 11 11 11 9 9 11 10 14 16 13 14
9 9 8 8 6 5 5 4 4 3 4 6 6 6 6 7 6 7 8 8 6 7 7 8 8 8 9 16 17 16 10 8 9 10 11 11 11 11 12 11 9 8 8
7 7 7 7 7 6 6 5 5 4 4 5 6 6 6 6 6 7 7 6 5 6 6 6 7 8 8 14 15 15 7 7 8 8 9 10 11 18 19 13 11 9 6
7 6 7 7 7 6 6 5 6 5 5 5 5 4 5 5 6 6 5 4 5 5 5 5 6 6 6 11 15 16 6 7 6 7 8 11 14 19 21 12 11 10 8
7 6 6 6 6 6 6 6 5 5 5 4 3 2 3 4 4 4 3 4 4 4 4 4 4 4 5 9 14 16 7 7 7 7 7 8 17 20 21 15 10 11 9
7 6 6 6 6 6 5 6 5 5 4 3 2 1 1 1 2 3 3 4 5 4 4 3 3 2 3 6 10 15 14 11 7 7 6 8 18 19 19 14 12 13 9
6 5 5 6 5 5 4 5 6 5 4 2 1 1 2 2 3 4 4 3 4 3 3 3 3 2 2 4 9 11 14 14 7 6 11 13 17 17 13 15 15 10 7
5 4 4 5 5 5 5 5 6 4 2 1 1 2 3 3 3 3 3 3 3 3 3 3 2 2 2 2 2 3 5 8 8 6 8 14 16 12 9 8 9 6 6
4 2 3 4 5 5 5 6 6 4 1 1 1 2 2 3 4 3 3 3 2 3 3 2 2 3 2 4 6 4 4 4 5 5 4 4 5 6 5 5 5 5 5
3 3 2 2 3 4 5 6 7 4 1 1 1 1 2 3 3 4 4 8 6 7 7 6 4 2 2 2 5 7 7 8 9 6 4 5 5 5 5 5 4 4 4
Wind_Direction
222 205 195 190 187 188 189 187 188 187 186 190 193 196 201 193 190 193 188 183 181 177 172 167 166 168 170 168 162 150 144 140 134 111 95 69 83 110 126 127 124 114 110
232 213 195 183 186 191 193 192 193 189 190 196 193 190 186 192 194 190 197 191 185 181 177 172 172 173 170 164 163 155 147 159 169 142 132 137 189 227 166 144 147 149 139
242 226 199 189 186 191 194 197 197 194 192 188 175 172 176 176 189 199 202 197 189 185 182 178 175 176 175 176 173 172 164 170 191 185 157 160 183 177 190 187 169 165 164
242 234 209 196 191 193 189 192 195 195 190 184 186 184 192 200 203 195 193 191 191 190 187 182 181 181 181 181 182 183 179 169 179 201 209 167 146 150 161 201 193 183 181
235 226 209 194 190 182 180 186 190 196 192 189 191 195 204 207 191 181 186 192 195 197 192 187 186 187 186 184 184 187 185 181 183 179 168 147 137 136 143 174 193 197 198
304 66 84 112 141 156 169 177 187 197 195 194 194 199 205 203 203 196 190 191 193 201 201 194 192 191 190 187 188 189 192 192 190 185 174 167 164 177 160 154 164 186 201
57 84 107 131 157 162 170 178 188 199 196 195 199 202 205 204 211 206 192 186 189 202 206 201 199 195 193 190 187 190 196 194 194 192 191 190 186 160 152 135 143 157 172
230 217 210 197 189 184 179 183 194 202 196 198 203 203 204 209 216 211 196 194 198 202 199 204 205 199 193 191 189 191 196 197 199 199 190 190 195 173 163 153 144 142 157
233 218 213 207 191 186 188 191 196 202 202 200 201 207 209 212 216 214 202 194 193 191 193 200 204 200 195 193 189 193 195 196 199 199 193 191 188 182 175 157 153 150 165
233 187 202 198 187 179 183 190 198 203 204 201 204 209 213 215 215 213 212 202 193 186 186 192 200 201 198 195 192 192 193 196 198 191 187 187 180 177 171 166 166 151 151
344 212 185 168 166 168 178 195 206 207 206 206 208 210 214 214 214 215 214 205 195 187 186 188 194 198 199 196 196 195 191 196 195 189 187 188 178 176 175 168 163 158 138
298 231 156 164 186 207 211 210 211 215 214 207 208 214 213 213 216 219 213 203 200 193 187 185 192 197 198 198 199 196 193 195 194 191 186 186 179 179 176 173 170 163 146
253 236 208 213 220 220 219 217 216 217 214 206 211 218 219 217 219 218 210 202 198 192 186 186 193 197 197 198 202 200 197 198 197 191 188 185 178 181 176 173 169 158 140
261 252 248 238 231 227 223 222 223 216 209 206 213 223 225 222 221 215 208 201 194 191 190 193 197 198 197 198 199 200 199 198 197 193 190 185 183 182 175 171 166 153 140
290 283 273 263 254 247 241 235 232 219 207 208 218 228 227 221 216 212 207 198 194 193 187 190 198 198 198 200 197 197 198 196 194 192 189 187 185 181 174 169 165 158 150
299 297 294 288 279 271 261 253 246 232 211 215 226 230 226 219 215 209 199 194 193 189 185 192 196 201 206 207 205 198 197 195 191 189 185 179 175 178 179 176 170 166 160
308 307 305 299 293 286 279 267 257 246 223 228 233 231 225 221 215 203 194 196 194 188 193 197 198 206 212 211 209 203 194 195 192 185 178 173 172 166 164 171 171 174 177
315 309 308 307 309 310 306 305 302 278 249 243 241 234 226 225 213 200 201 198 188 190 195 199 201 206 214 214 210 200 193 192 188 182 176 171 168 170 161 158 162 171 183
318 317 324 324 327 332 338 328 308 292 271 257 250 239 224 220 210 207 205 195 186 190 194 193 197 205 212 212 209 197 187 187 183 174 170 170 169 177 173 165 168 176 194
334 331 332 332 329 335 339 319 301 294 281 272 261 242 220 213 211 207 196 183 181 187 184 191 195 200 203 209 209 199 185 183 174 167 171 178 177 181 181 174 173 183 191
320 328 329 323 322 330 329 310 304 297 296 293 282 253 211 202 199 187 170 162 162 163 169 177 183 191 197 211 212 205 187 183 175 175 174 183 189 189 191 186 185 195 182
319 327 323 317 326 337 330 315 311 316 320 318 316 300 154 149 147 146 143 145 148 153 159 162 168 182 189 202 216 213 200 186 178 178 175 185 192 195 197 196 197 198 189
311 315 311 310 323 341 339 317 318 326 329 345 17 54 85 99 119 133 137 135 140 146 152 158 167 169 179 208 216 217 207 194 178 176 181 185 193 197 201 206 204 198 196
299 305 311 309 319 343 343 326 320 321 325 13 65 91 104 104 103 109 119 128 139 143 147 158 162 157 167 189 196 196 196 197 188 180 184 189 195 197 193 197 206 204 203
288 289 290 299 315 335 336 336 330 325 339 69 96 105 107 111 102 93 98 111 107 134 141 149 148 156 178 208 202 186 186 181 174 160 162 175 181 191 192 191 194 197 199
293 295 298 305 322 337 339 340 334 331 338 95 101 102 108 107 107 104 89 83 91 95 99 106 112 108 124 182 199 203 199 190 176 165 172 179 183 188 188 189 191 193 197